sat.trackr.live / text

‹ back to catalog

STARLINK-33717

NORAD 63648 · 2025-083Q

PAYLOAD ACTIVE UNKNOWN

§ Identity

Operator
Country
US
Launch date
2025-04-25
Launch site
AFETR
Launch vehicle
Mass (kg)
RCS (m²)

Purposes: comms

External: N2YO · Heavens-Above · Gunter

§ Orbital elements

Epoch: 2026-09-19T14:05:49.755552Z

Period
94.27 min
Inclination
43.0023°
Eccentricity
0.0002070
Mean motion
15.27607363 rev/d
Perigee alt
481.5 km
Apogee alt
484.4 km
Semi-major
6,861.1 km
B*
5.4152e-4
RAAN
349.9457°
Arg perigee
279.3444°
Mean anomaly
80.7173°
Rev number
7,972

§ Raw data

STARLINK-337171 63648U 25083Q   26262.58738143  .00014682  00000+0  54152-3 0  99922 63648  43.0023 349.9457 0002070 279.3444  80.7173 15.27607363 79725

JSON: /api/v1/satellites/63648 · /tle

For live sub-satellite position, see the globe view (requires WebGL).

§ Visibility from observer

Set your observer location to see the next 7 days of passes ≥ 10°. The values pass through the URL so the page stays shareable.

No JS? Fill the form by hand. The geolocation button needs JavaScript.